CW0449 Weather Reports


time (UTC)temp
C
wind
direction
speed
KPH
gust
KPH
rain 1hr
cm
rain 24hr
cm
rain mn
cm
humidity
%
barometer
mb
20260503020907 13 166 4.8 11.3 0.00 0.74 0.74 93 1010.2
20260503000908 13 142 3.2 9.7 0.03 0.74 0.74 92 1010.7
20260503000408 13 145 3.2 19.3 0.03 0.74 0.74 92 1010.8
20260502230406 13 118 8.0 20.9 0.71 0.71 0.71 92 1011.0
20260502220906 15 118 3.2 9.7 0.03 0.03 0.03 86 1013.2
20260502220406 15 113 9.7 22.5 0.00 0.00 0.00 86 1013.3
20260502214906 14 190 8.0 22.5 0.00 0.00 0.00 90 1013.9
20260502210907 14 21 3.2 11.3 0.00 0.00 0.00 86 1012.0
20260502210407 14 15 4.8 12.9 0.00 0.00 0.00 85 1012.0
20260502190906 16 347 1.6 4.8 0.00 0.00 0.00 67 1012.9
20260502190406 16 347 4.8 12.9 0.00 0.00 0.00 66 1012.9
20260502180906 18 317 4.8 9.7 0.00 0.00 0.00 56 1012.8
20260502180406 18 301 3.2 9.7 0.00 0.00 0.00 54 1012.9
20260502170406 20 337 4.8 11.3 0.00 0.00 0.00 51 1013.5
20260502160906 21 227 3.2 9.7 0.00 0.00 0.00 50 1014.1
20260502150906 22 290 4.8 9.7 0.00 0.00 0.00 53 1014.5
20260502150405 22 216 6.4 20.9 0.00 0.00 0.00 53 1014.6
20260502130405 22 257 4.8 20.9 0.00 0.00 0.00 65 1015.6
20260502120905 21 224 8.0 16.1 0.00 0.00 0.00 69 1016.0
20260502100904 21 243 6.4 12.9 0.00 0.00 0.00 70 1016.5
20260502070904 15 176 1.6 9.7 0.00 0.00 0.00 71 1016.8
20260502070404 15 177 4.8 12.9 0.00 0.00 0.00 71 1016.9
20260502060404 14 194 4.8 12.9 0.00 0.00 0.00 67 1016.8
20260502040404 12 163 3.2 9.7 0.00 0.00 0.00 65 1016.6
20260502030908 14 163 4.8 9.7 0.00 0.00 0.00 59 1016.9
20260502030407 14 173 9.7 14.5 0.00 0.00 0.00 59 1017.0